TAM670 SBGL-SBRJ

Flight info

Callsign TAM670
Flight time 0h 8m
Altitude 21000
Route SIDUR DCT ASALU
Aircraft A319/M-SDE3FGHIRWY/LB1

Departure

Time 2026-05-04 17:50
Airport Rio Galeão – Tom Jobim International Airport (SBGL)

Arrival

Time 2026-05-04 17:58
Airport Santos Dumont Airport (SBRJ)
Time Latitude Longitude Altitude Speed Heading
2026-05-04 17:50 -22.65205 -43.26060 5013 ft 281 kts 188°
2026-05-04 17:50 -22.67157 -43.25995 5017 ft 283 kts 173°
2026-05-04 17:50 -22.69124 -43.25742 5007 ft 285 kts 173°
2026-05-04 17:50 -22.71095 -43.25486 5008 ft 285 kts 173°
2026-05-04 17:51 -22.73067 -43.25234 4985 ft 282 kts 173°
2026-05-04 17:51 -22.74997 -43.24989 4863 ft 277 kts 174°
2026-05-04 17:51 -22.76895 -43.24749 4743 ft 272 kts 173°
2026-05-04 17:51 -22.78692 -43.24203 4608 ft 266 kts 151°
2026-05-04 17:52 -22.80234 -43.23185 4486 ft 252 kts 147°
2026-05-04 17:52 -22.81664 -43.22197 4358 ft 236 kts 145°
2026-05-04 17:52 -22.82987 -43.21231 4232 ft 222 kts 144°
2026-05-04 17:52 -22.84226 -43.20311 4054 ft 212 kts 143°
2026-05-04 17:53 -22.85414 -43.19406 3598 ft 206 kts 139°
2026-05-04 17:53 -22.86177 -43.18167 3157 ft 195 kts 105°
2026-05-04 17:53 -22.86449 -43.16757 2720 ft 188 kts 97°
2026-05-04 17:53 -22.86643 -43.15347 2267 ft 187 kts 92°
2026-05-04 17:54 -22.86302 -43.13993 1852 ft 194 kts 58°
2026-05-04 17:54 -22.85220 -43.13157 1445 ft 193 kts 18°
2026-05-04 17:54 -22.83938 -43.12962 1256 ft 176 kts
2026-05-04 17:54 -22.82755 -43.13123 1235 ft 172 kts 341°
2026-05-04 17:55 -22.81857 -43.13955 1209 ft 176 kts 302°
2026-05-04 17:55 -22.81657 -43.15234 1204 ft 176 kts 258°
2026-05-04 17:55 -22.82256 -43.16335 1117 ft 166 kts 214°
2026-05-04 17:55 -22.83243 -43.16767 1045 ft 149 kts 180°
2026-05-04 17:56 -22.84232 -43.16717 989 ft 132 kts 171°
2026-05-04 17:56 -22.85130 -43.16661 986 ft 127 kts 170°
2026-05-04 17:56 -22.85998 -43.16609 973 ft 125 kts 173°
2026-05-04 17:56 -22.86879 -43.16525 817 ft 126 kts 173°
2026-05-04 17:57 -22.87749 -43.16490 590 ft 123 kts 174°
2026-05-04 17:57 -22.88595 -43.16458 379 ft 120 kts 174°
2026-05-04 17:57 -22.89425 -43.16394 241 ft 119 kts 175°
2026-05-04 17:57 -22.90247 -43.16339 93 ft 118 kts 173°
2026-05-04 17:58 -22.91014 -43.16283 22 ft 87 kts 175°
2026-05-04 17:58 -22.91368 -43.16261 22 ft 34 kts 179°
2026-05-04 17:58 -22.91508 -43.16254 21 ft 10 kts 176°
2026-05-04 17:58 -22.91587 -43.16261 20 ft 10 kts 212°
2026-05-04 17:59 -22.91568 -43.16331 20 ft 13 kts 317°
2026-05-04 17:59 -22.91500 -43.16403 23 ft 14 kts 316°
2026-05-04 17:59 -22.91315 -43.16507 22 ft 17 kts 357°
2026-05-04 18:00 -22.91221 -43.16512 22 ft 5 kts 355°
2026-05-04 18:00 -22.91208 -43.16527 22 ft 4 kts 294°
2026-05-04 18:00 -22.91208 -43.16561 22 ft 3 kts 266°
2026-05-04 18:00 -22.91209 -43.16580 22 ft 1 kts 266°
2026-05-04 18:01 -22.91209 -43.16584 22 ft 1 kts 267°
2026-05-04 18:01 -22.91209 -43.16585 22 ft 0 kts 267°
2026-05-04 18:06 -22.91209 -43.16581 22 ft 3 kts 267°
2026-05-04 18:06 -22.91207 -43.16552 24 ft 4 kts 268°
2026-05-04 18:07 -22.91211 -43.16525 23 ft 4 kts 309°
2026-05-04 18:07 -22.91231 -43.16512 22 ft 3 kts 355°
2026-05-04 18:07 -22.91237 -43.16511 22 ft 0 kts 356°